Kodiak, AK

10:38 AM AKDT en Octubre 17, 2017 (GMT -0800)
Kodiak

Tiempo Historia de PADQ - Enero, 2017

Change the Weather History Date:

Domingo, Enero 1, 2017

  Actual Average Record
Temperature  
Temperatura media 34 ° F 31 ° F  
Temperatura máxima 44 ° F 36 ° F 46 ° F (1985)
Temperatura mínima 24 ° F 26 ° F -9 ° F (1917)
Degree Days  
Grados día de calefacción 31 34  
Month to date heating degree days 34  
Since 1 July heating degree days 3877  
Cooling Degree Days 0 0  
Month to date cooling degree days 0  
Year to date cooling degree days 0  
Moisture  
Punto de rocío 21 ° F    
Average Humidity 62    
Maximum Humidity 88    
Minimum Humidity 36    
Precipitación  
Precipitación 0.00 pul 0.28 pul 1.25 pul (2008)
Month to date precipitation 0.28  
Year to date precipitation 0.28  
Nieve  
Nieve 0.00 pul 0.40 pul 3.80 pul (1967)
Month to date snowfall 0.4  
Since 1 July snowfall 21.7  
Grosos de nieve -    
Presión al nivel del mar  
Presión al nivel del mar 30.63 pul    
Viento  
Velocidad del viento 4 mph (SSO)    
Velocidad máxima del viento 12 mph    
Max Gust Speed -    
Visibilidad 10 Millas    
Eventos      
T = Trace of Precipitation, MM = Missing Value Source: NWS Daily Summary

Daily Weather History Graph

Daily Weather History Graph

Search for Another Location

Airport or City:

Trip Planner

Search our weather history database for the weather conditions in past years. The results will help you decide how hot, cold, wet, or windy it might be!

Date:

Astronomía

Jan. 01, 2017 Salida Puesta
Hora real 9:53 AM AKST 4:34 PM AKST
Crepúsculo civil 9:02 AM AKST 5:25 PM AKST
Crepúsculo náutico 8:11 AM AKST 6:16 PM AKST
Crepúsculo astronómico 7:23 AM AKST 7:04 PM AKST
Luna 11:28 AM AKST (1/1) 9:03 PM AKST (1/1)
Horas de luz 8h 22m
Horas de luz
6h 41m
Creciente, 12% of the Moon is Illuminated
Ene 1
Creciente
Ene 5
Cuarto creciente
Ene 12
Luna llena
Ene 19
Cuarto menguante
Ene 27
Nueva

Hourly Weather History & Observations

Hora (AKST) Temp. Vientos helados Punto de rocío Humedad Presión Visibilidad Wind Dir Velocidad del viento Velocidad de ráfagas Precip Eventos Condiciones
12:53 AM 23.0 ° F 15.8 ° F 19.0 ° F 85% 30.67 pul 10.0 mi Oeste 5.8 mph - N/A   Despejado
1:53 AM 23.0 ° F - 19.0 ° F 85% 30.66 pul 10.0 mi Sin viento Sin viento - N/A   Despejado
2:53 AM 26.1 ° F - 19.0 ° F 75% 30.66 pul 10.0 mi Sin viento Sin viento - N/A   Despejado
3:53 AM 35.1 ° F 29.3 ° F 18.0 ° F 50% 30.66 pul 10.0 mi Sur 6.9 mph - N/A   Despejado
4:53 AM 37.0 ° F 34.5 ° F 21.0 ° F 52% 30.66 pul 10.0 mi ENE 3.5 mph - N/A   Despejado
5:53 AM 33.1 ° F 25.5 ° F 19.9 ° F 59% 30.66 pul 10.0 mi Sur 9.2 mph - N/A   Despejado
6:53 AM 33.1 ° F 25.5 ° F 18.0 ° F 54% 30.66 pul 10.0 mi SSO 9.2 mph - N/A   Despejado
7:53 AM 30.9 ° F 23.5 ° F 18.0 ° F 59% 30.65 pul 10.0 mi Sur 8.1 mph - N/A   Despejado
8:53 AM 33.1 ° F - 21.9 ° F 64% 30.65 pul 10.0 mi Sin viento Sin viento - N/A   Despejado
9:53 AM 28.9 ° F - 21.0 ° F 72% 30.65 pul 10.0 mi Sin viento Sin viento - N/A   Despejado
10:53 AM 33.1 ° F 28.7 ° F 19.0 ° F 56% 30.65 pul 10.0 mi Sur 4.6 mph - N/A   Despejado
11:53 AM 39.0 ° F 35.7 ° F 25.0 ° F 57% 30.63 pul 10.0 mi Variable 4.6 mph - N/A   Despejado
12:53 PM 42.1 ° F 36.6 ° F 21.9 ° F 45% 30.62 pul 10.0 mi SSE 9.2 mph - N/A   Despejado
1:53 PM 42.1 ° F 38.4 ° F 25.0 ° F 51% 30.63 pul 10.0 mi SSO 5.8 mph - N/A   Despejado
2:53 PM 42.1 ° F 38.4 ° F 24.1 ° F 49% 30.61 pul 10.0 mi Sur 5.8 mph - N/A   Despejado
3:53 PM 41.0 ° F 34.3 ° F 25.0 ° F 53% 30.59 pul 10.0 mi SO 11.5 mph - N/A   Despejado
4:53 PM 39.9 ° F - 21.9 ° F 49% 30.58 pul 10.0 mi Sin viento Sin viento - N/A   Despejado
5:53 PM 39.0 ° F 34.0 ° F 27.0 ° F 62% 30.59 pul 10.0 mi NE 6.9 mph - N/A   Despejado
6:53 PM 28.9 ° F 25.2 ° F 21.0 ° F 72% 30.59 pul 10.0 mi NO 3.5 mph - N/A   Despejado
7:53 PM 36.0 ° F 29.6 ° F 24.1 ° F 62% 30.58 pul 10.0 mi Sur 8.1 mph - N/A   Despejado
8:53 PM 30.0 ° F 25.2 ° F 21.9 ° F 72% 30.59 pul 10.0 mi ESE 4.6 mph - N/A   Despejado
9:53 PM 26.1 ° F - 19.9 ° F 78% 30.59 pul 10.0 mi Sin viento Sin viento - N/A   Despejado
10:53 PM 24.1 ° F 18.2 ° F 21.0 ° F 88% 30.59 pul 10.0 mi Oeste 4.6 mph - N/A   Despejado
11:53 PM 24.1 ° F 17.0 ° F 19.9 ° F 84% 30.59 pul 10.0 mi ONO 5.8 mph - N/A   Despejado